Location: Miss�
(46.9484°N, 0.1922°W)
Time: 00:12:48
(UTC+00:00)

SeaSat 1 - Pass Details

Date: 02 March 2021
Orbit: 744 x 747 km, 108.0° (Epoch: 20 April)

Event Time Altitude Azimuth Distance (km) Brightness Sun altitude
Rises 20:16:22 0° 21° (NNE) 3,201 5.7 -25.8°
Reaches altitude 10° 20:18:50 10° 12° (NNE) 2,274 5.0 -26.2°
Maximum altitude 20:23:10 32° 311° (NW) 1,278 4.1 -26.9°
Drops below altitude 10° 20:27:29 10° 249° (WSW) 2,264 5.5 -27.6°
Sets 20:29:56 0° 240° (WSW) 3,185 6.2 -28.0°
